Zurück zum Katalog

COSMOS 2251 DEB

AktivLEO
NORAD 35717·DEBRIS·🇷🇺 Russia

Gestartet Jun 16, 1993 von Plesetsk Cosmodrome

Loading…

Nächste Überflüge (nächste 24 Stunden)

TLE

AktuellSource: Space-Track

Epoche: Sep 14, 2026, 17:47 UTC

1 35717U 93036AQN 26257.74120160  .00002391  00000-0  73847-3 0  9994
2 35717  74.1578  71.7138 0075111 212.6786 146.9712 14.40247994780718

Verfolge COSMOS 2251 DEB in Echtzeit mit AllMySat

Download on the App Store